Location: Beneden-Haastrecht
(52.0012°N, 4.7557°E)
Time: 05:35:56
(UTC+00:00)

Cosmos 1076 Rocket - Pass Details

Date: 24 October 2020
Orbit: 589 x 613 km, 82.5° (Epoch: 25 November)

Event Time Altitude Azimuth Distance (km) Brightness Sun altitude
Rises 19:04:36 0° 347° (NNW) 2,838 7.3 -24.7°
Reaches altitude 10° 19:06:49 10° 344° (NNW) 1,931 6.4 -25.1°
Enters shadow 19:10:59 66° 270° (W) 648 3.7 -25.7°
